Preview of NWS' New Version of Forecast
This preview is not operational and should not be used for support decisions.

Regional Weather Roundup (RWR)

Issued by National Weather Service (NWS)

                            
000
ASUS43 KLSX 200607
RWRMO 

WEATHER SUMMARY FOR MISSOURI
NATIONAL WEATHER SERVICE SPRINGFIELD MO
1200 AM CST WED FEB 20 2019

NOTE: "FAIR" INDICATES FEW OR NO CLOUDS BELOW 12,000 FEET WITH NO
       SIGNIFICANT WEATHER AND/OR OBSTRUCTIONS TO VISIBILITY.
       CURRENT SKY AND/OR WEATHER CONDITIONS ARE NOT AVAILABLE FOR
       CHILLICOTHE AND FARMINGTON.

MOZ001>031-035>038-043-044-053-054-200700-
...NORTHERN AND WESTERN MISSOURI...
  
CITY           SKY/WX    TMP DP  RH WIND       PRES   REMARKS
KANSAS CTY INT SNOW      27  25  92 E13       29.93F VSB 1/2 WCI  16  
6HR MIN TEMP:  27; 6HR MAX TEMP:  29; 6HR PCP:  0.35;                

KANSAS C DTWN  LGT SNOW  30  26  85 E7        29.94F FOG     WCI  23  
6HR MIN TEMP:  29; 6HR MAX TEMP:  30; 6HR PCP:  0.26;                

LEE'S SUMMIT   LGT SNOW  29  28  96 E8        29.93F FOG     WCI  21  
6HR MIN TEMP:  27; 6HR MAX TEMP:  29; 6HR PCP:  0.22;                

ST JOSEPH      LGT SNOW  27  27 100 E8        29.94F VSB 3/4 WCI  19  
6HR MIN TEMP:  27; 6HR MAX TEMP:  29; 6HR PCP:  0.36;                

CHILLICOTHE      N/A     29  27  92 NE10G20   29.98F WCI  20          
6HR MIN TEMP:  29; 6HR MAX TEMP:  30; 6HR PCP:  0.18;                

KIRKSVILLE     LGT SNOW  29  29 100 E18G29    29.99F VSB 1   WCI  16  
6HR MIN TEMP:  29; 6HR MAX TEMP:  30; 6HR PCP:  0.01;                

     
$$
MOZ066>068-077>081-088>096-101>105-200700-
...SOUTHWEST MISSOURI...
  
CITY           SKY/WX    TMP DP  RH WIND       PRES   REMARKS
SPRINGFIELD    CLOUDY    34  32  92 SE7       29.86F WCI  28          
6HR MIN TEMP:  34; 6HR MAX TEMP:  35; 6HR PCP:  0.36;                

JOPLIN         CLOUDY    34  33  96 SE3       29.90S                  
6HR MIN TEMP:  32; 6HR MAX TEMP:  34; 6HR PCP:  0.12;                

BRANSON        LGT RAIN  32  32 100 CALM      29.88F                  
               
$$
MOZ032>034-039>042-045>050-055>058-069>072-200700-
...CENTRAL MISSOURI...  
  
CITY           SKY/WX    TMP DP  RH WIND       PRES   REMARKS
COLUMBIA       FRZ RAIN  31  28  89 E16       29.92F FOG     WCI  20  
6HR MIN TEMP:  29; 6HR MAX TEMP:  31; 6HR PCP:  0.12;                

JEFFERSON CITY MIX PCPN  32  28  85 E12G24    29.94F WCI  23          
6HR MIN TEMP:  30; 6HR MAX TEMP:  33;                                

ROLLA          FRZ RAIN  31  28  89 E15G26    29.90F WCI  20          
6HR MIN TEMP:  29; 6HR MAX TEMP:  31; 6HR PCP:  0.22;                

SEDALIA        LGT SNOW  30  30 100 E14       29.93F FOG     WCI  19  
6HR MIN TEMP:  28; 6HR MAX TEMP:  31; 6HR PCP:  0.19;                

WHITEMAN AFB   FRZ DRZL  30  30 100 CALM      29.90F FOG              
WARRENSBURG    MIX PCPN  30  28  93 E6        29.95F WCI  24          
OSAGE BEACH    LGT SNOW  31  30  96 CALM      29.97R FOG              
               
$$
MOZ051-052-059>065-200700-
...EAST CENTRAL MISSOURI...
  
CITY           SKY/WX    TMP DP  RH WIND       PRES   REMARKS
ST LOUIS INTL  FRZ RAIN  32  29  88 E17G24    30.03F FOG     WCI  21  
6HR MIN TEMP:  30; 6HR MAX TEMP:  33; 6HR PCP:  0.33;                

SPIRIT OF STL  FRZ RAIN  33  31  92 E15       30.01F WCI  23          
6HR MIN TEMP:  31; 6HR MAX TEMP:  34; 6HR PCP:  0.25;                

ST CHARLES     FRZ RAIN  33  30  88 E16G25    30.04F FOG     WCI  23  
6HR MIN TEMP:  31; 6HR MAX TEMP:  33;                                

                   
$$
MOZ072>076-082>087-097>100-106>115-200700-
...SOUTH CENTRAL AND SOUTHEAST MISSOURI...
  
CITY           SKY/WX    TMP DP  RH WIND       PRES   REMARKS
CAPE GIRARDEAU LGT RAIN  37  33  85 E20       29.95F WCI  27          
6HR MIN TEMP:  34; 6HR MAX TEMP:  39; 6HR PCP:  0.72;                

FARMINGTON     MIX PCPN  32  31  96 E7        29.98F WCI  26          
6HR MIN TEMP:  32; 6HR MAX TEMP:  34;                                

POPLAR BLUFF   LGT RAIN  35  35 100 NE9       29.97F WCI  28          
6HR MIN TEMP:  34; 6HR MAX TEMP:  37; 6HR PCP:  0.77;                

WEST PLAINS    RAIN      34  33  96 E5        29.90R WCI  30          
6HR MIN TEMP:  33; 6HR MAX TEMP:  34; 6HR PCP:  0.73;                

                                       
$$